Regional Weather Roundup
Issued by NWS Goodland, KS

Home | Current Version | Previous Version | Text Only | Print | Product List | Glossary On
Versions: 1 2 3 4 5 6 7 8 9 10 11 12 13 14 15 16 17 18 19 20 21 22 23 24 25 26 27 28 29 30 31 32 33 34 35 36 37 38 39 40 41 42 43 44 45 46 47 48 49 50
000
ASUS43 KGLD 130008
RWRGLD

GOODLAND FORECAST AREA HOURLY WEATHER ROUNDUP
NATIONAL WEATHER SERVICE GOODLAND KS
500 PM MST TUE DEC 12 2017

...OFFICIAL OBSERVATIONS...

CITY           SKY/WX    TMP DP  RH WIND       PRES   REMARKS
GOODLAND KS    CLEAR     43  15  32 CALM      30.07F
HILL CITY KS   CLEAR     48  17  29 SW3       30.05F
IMPERIAL NEB   CLEAR     52  18  26 W7        30.03F
MCCOOK NEB     CLEAR     53  20  27 SW7       30.01F
AKRON CO       CLEAR     46  13  26 MISG      30.10F
BURLINGTON CO  CLEAR     48  15  26 SW6       30.11F
LIMON CO       CLEAR     44  14  29 CALM      30.17S
$$

...UNOFFICIAL OBSERVATIONS...

CITY           SKY/WX    TMP DP  RH WIND       PRES   REMARKS
COLBY KS       CLEAR     46  21  36 SW6       30.07F
LENORA KS        N/A     50  32  50 SW6         N/A
NORTON KS      CLEAR     48  12  23 S5        30.01
SHARON SPRINGS   N/A     51  17  26 CALM        N/A
TRENTON NEB      N/A     54  32  43 CALM        N/A
KIT CARSON CO    N/A     48  15  26 MISG        N/A
YUMA CO        FAIR      50  14  23 W8        30.08F
$$




USA.gov is the U.S. government's official web portal to all federal, state and local government web resources and services.